Overview Statistics Trail Chart Weather Telemetry Raw packets
 

This is the latest recevied weather packets stored in our database for station/object KI5NXU. If no packets are shown the sender has not sent any weather packets the latest 10 day(s).

<< 33 34 35 36 37 38 39 >>
Time Temp. Humidity Pressure Rain* Wind** Luminosity Snow
1788152677 31.11° C 45% 1014.3 hPa 0 mm - 0 W/m² -
1788152376 30.56° C 45% 1014.6 hPa 0 mm - 0 W/m² -
1788152076 30.56° C 45% 1014.2 hPa 0 mm - 0 W/m² -
1788151771 30.56° C 44% 1014.1 hPa 0 mm - 0 W/m² -
1788151466 30.56° C 44% 1014.1 hPa 0 mm - 0 W/m² -
1788151162 30.56° C 44% 1014.2 hPa 0 mm - 0 W/m² -
1788150861 30.56° C 44% 1014 hPa 0 mm - 0 W/m² -
1788150557 30.56° C 44% 1014 hPa 0 mm - 0 W/m² -
1788150255 31.11° C 43% 1014.1 hPa 0 mm - 0 W/m² -
1788149945 31.11° C 43% 1014.3 hPa 0 mm - 0 W/m² -
1788149644 31.11° C 43% 1014.2 hPa 0 mm - 0 W/m² -
1788149340 31.11° C 43% 1014.2 hPa 0 mm - 0 W/m² -
1788149034 31.11° C 42% 1014.4 hPa 0 mm - 0 W/m² -
1788148732 31.67° C 42% 1014.3 hPa 0 mm - 0 W/m² -
1788148431 31.67° C 42% 1014.2 hPa 0 mm - 0 W/m² -
1788148126 31.67° C 41% 1014.1 hPa 0 mm - 0 W/m² -
1788147821 31.67° C 41% 1014 hPa 0 mm - 0 W/m² -
1788147517 32.22° C 40% 1013.9 hPa 0 mm - 0 W/m² -
1788147217 31.67° C 40% 1014 hPa 0 mm - 0 W/m² -
1788146912 32.22° C 40% 1013.8 hPa 0 mm - 0 W/m² -
1788146606 32.22° C 39% 1013.8 hPa 0 mm - 0 W/m² -
1788146302 32.22° C 39% 1013.9 hPa 0 mm - 0 W/m² -
1788146000 32.22° C 39% 1013.9 hPa 0 mm - 0 W/m² -
1788145696 32.22° C 39% 1013.6 hPa 0 mm - 0 W/m² -
1788145394 32.22° C 39% 1013.9 hPa 0 mm - 0 W/m² -

* Rain latest hour (hover to see other rain measurements)
** Current wind speed in m/s (hover to see current wind gust speed)